contact:dominique.lefevre@mio.osupytheas.fr, maurice.libes@osupytheas.fr, didier.mallarino@osupytheas.fr
Project:EMSO http://www.emso-fr.org/EMSO-France
Depth: 2436.0 m
Title:EMSO Ligure Ouest : Data MII capteur AQUADOPP
Date,Latitude,Longitude,X_East,Y_North,Z_Up,Amplitude_X,Amplitude_Y,Amplitude_Z,Batterie,SoundSpeed,Heading,Pitch,Roll,Pressure,TIS,Speed,Direction
, degrees North, degrees East, m.s-1, m.s-1,m.s-1, 1, 1, 1, Volt, m.s-1, degree, degree, degree, dbar, degree_C, m.s-1, degree
2023-09-15T00:04:02,42.805,6.029,-0.041,0.014,-0.033,102.0,101.0,101.0,13.3,1505.2,333.8,-0.7,1.8,2471.457,13.28,0.043,288.9
2023-09-15T00:07:03,42.805,6.029,0.0,-0.019,-0.045,102.0,103.0,101.0,13.4,1505.2,333.0,-0.8,1.8,2471.42,13.29,0.019,180.0
2023-09-15T00:10:03,42.805,6.029,-0.036,-0.008,-0.047,103.0,102.0,101.0,13.3,1505.2,333.4,-0.7,1.8,2471.437,13.29,0.036,257.5
2023-09-15T00:13:03,42.805,6.029,-0.035,0.008,-0.042,102.0,102.0,101.0,13.4,1505.2,336.0,-0.8,1.8,2471.427,13.29,0.035,282.9
2023-09-15T00:16:03,42.805,6.029,-0.032,0.001,-0.01,102.0,103.0,102.0,13.4,1505.2,336.2,-0.7,1.8,2471.46,13.29,0.032,271.8
2023-09-15T00:19:03,42.805,6.029,0.0,0.024,-0.029,102.0,102.0,102.0,13.4,1505.2,349.6,-0.8,1.8,2471.418,13.29,0.024,0.0
2023-09-15T00:22:03,42.805,6.029,-0.008,0.017,-0.012,102.0,103.0,102.0,13.4,1505.2,343.4,-0.7,1.8,2471.429,13.29,0.018,334.8
2023-09-15T00:25:03,42.805,6.029,-0.025,0.013,-0.008,104.0,102.0,101.0,13.4,1505.2,353.1,-0.8,1.8,2471.377,13.29,0.028,297.5
2023-09-15T00:28:03,42.805,6.029,-0.015,0.002,-0.029,102.0,102.0,102.0,13.4,1505.2,342.9,-0.8,1.8,2471.373,13.29,0.015,277.6
2023-09-15T00:31:03,42.805,6.029,-0.019,0.029,-0.007,103.0,102.0,101.0,13.4,1505.2,336.2,-0.8,1.8,2471.401,13.29,0.034,326.8
2023-09-15T00:34:03,42.805,6.029,-0.035,0.002,-0.039,103.0,104.0,100.0,13.4,1505.2,344.5,-0.8,1.8,2471.394,13.29,0.035,273.3
2023-09-15T00:37:03,42.805,6.029,-0.015,-0.004,-0.023,103.0,102.0,101.0,13.4,1505.2,332.0,-0.7,1.8,2471.425,13.29,0.015,255.1
2023-09-15T00:40:03,42.805,6.029,-0.014,0.01,-0.03,103.0,102.0,101.0,13.4,1505.2,354.4,-0.8,1.8,2471.421,13.29,0.017,305.5
2023-09-15T00:43:03,42.805,6.029,-0.035,0.0,0.007,103.0,101.0,112.0,13.3,1505.2,337.6,-0.8,1.8,2471.391,13.29,0.035,270.0
2023-09-15T00:46:03,42.805,6.029,-0.008,0.024,-0.031,102.0,102.0,101.0,13.4,1505.2,347.6,-0.8,1.8,2471.414,13.29,0.025,341.6
2023-09-15T00:49:03,42.805,6.029,-0.021,0.0,-0.034,101.0,104.0,100.0,13.4,1505.2,332.1,-0.8,1.8,2471.422,13.29,0.021,270.0
2023-09-15T00:52:03,42.805,6.029,-0.037,0.012,-0.056,103.0,102.0,102.0,13.3,1505.2,354.2,-0.8,1.8,2471.38,13.29,0.038,288.0
2023-09-15T00:55:03,42.805,6.029,-0.01,-0.009,-0.041,103.0,102.0,101.0,13.3,1505.2,341.5,-0.8,1.9,2471.428,13.29,0.013,228.0
2023-09-15T00:58:03,42.805,6.029,-0.029,-0.005,-0.015,102.0,103.0,101.0,13.4,1505.2,350.7,-0.7,1.8,2471.365,13.29,0.029,260.2
2023-09-15T01:04:03,42.805,6.029,-0.011,-0.006,-0.015,103.0,103.0,103.0,13.3,1505.2,326.8,-0.7,1.8,2471.472,13.28,0.012,241.4
2023-09-15T01:07:03,42.805,6.029,-0.042,-0.009,-0.026,103.0,101.0,102.0,13.3,1505.2,326.3,-0.8,1.8,2471.441,13.29,0.042,257.9
2023-09-15T01:10:03,42.805,6.029,-0.021,-0.001,-0.039,101.0,102.0,101.0,13.4,1505.2,324.2,-0.7,1.8,2471.422,13.29,0.021,267.3
2023-09-15T01:13:03,42.805,6.029,-0.029,-0.007,-0.022,102.0,101.0,102.0,13.3,1505.2,336.5,-0.8,1.8,2471.405,13.29,0.029,256.4
2023-09-15T01:16:03,42.805,6.029,-0.031,0.029,-0.009,102.0,102.0,102.0,13.4,1505.2,351.7,-0.7,1.8,2471.396,13.29,0.042,313.1
2023-09-15T01:19:03,42.805,6.029,-0.025,0.001,-0.022,103.0,102.0,102.0,13.4,1505.2,343.3,-0.8,1.8,2471.386,13.29,0.025,272.3
2023-09-15T01:22:02,42.805,6.029,-0.017,-0.007,-0.01,100.0,104.0,102.0,13.4,1505.2,341.2,-0.8,1.9,2471.396,13.29,0.018,247.6
2023-09-15T01:25:03,42.805,6.029,-0.028,0.003,-0.025,102.0,102.0,101.0,13.3,1505.2,327.4,-0.8,1.8,2471.386,13.29,0.028,276.1
2023-09-15T01:28:03,42.805,6.029,-0.006,0.011,-0.042,102.0,103.0,101.0,13.4,1505.2,335.7,-0.8,1.8,2471.414,13.29,0.012,331.4
2023-09-15T01:31:03,42.805,6.029,-0.008,0.01,-0.06,103.0,101.0,102.0,13.4,1505.2,339.5,-0.8,1.8,2471.38,13.29,0.012,321.3
2023-09-15T01:34:03,42.805,6.029,-0.034,0.01,-0.056,102.0,102.0,101.0,13.4,1505.2,346.2,-0.8,1.8,2471.384,13.29,0.035,286.4
2023-09-15T01:37:03,42.805,6.029,-0.021,0.014,-0.036,102.0,104.0,102.0,13.3,1505.2,335.1,-0.8,1.8,2471.375,13.29,0.025,303.7
2023-09-15T01:40:03,42.805,6.029,-0.018,0.004,0.002,103.0,102.0,102.0,13.3,1505.2,335.7,-0.8,1.8,2471.393,13.29,0.018,282.5
2023-09-15T01:43:03,42.805,6.029,-0.034,0.018,-0.015,103.0,102.0,101.0,13.4,1505.2,346.8,-0.8,1.8,2471.371,13.29,0.038,297.9
2023-09-15T01:46:03,42.805,6.029,0.006,0.015,-0.014,103.0,103.0,102.0,13.4,1505.2,351.7,-0.8,1.8,2471.387,13.29,0.016,21.8
2023-09-15T01:49:03,42.805,6.029,-0.012,-0.012,-0.041,103.0,102.0,102.0,13.3,1505.2,341.2,-0.8,1.8,2471.35,13.29,0.016,225.0
2023-09-15T01:52:03,42.805,6.029,-0.035,0.019,-0.038,103.0,103.0,102.0,13.4,1505.2,347.5,-0.8,1.8,2471.375,13.29,0.039,298.5
2023-09-15T01:55:03,42.805,6.029,0.011,0.017,0.009,102.0,102.0,102.0,13.4,1505.2,351.1,-0.7,1.8,2471.337,13.29,0.02,32.9
2023-09-15T01:58:03,42.805,6.029,-0.016,0.0,-0.023,103.0,101.0,102.0,13.4,1505.2,331.8,-0.8,1.8,2471.368,13.29,0.016,270.0
2023-09-15T03:04:02,42.805,6.029,-0.014,-0.003,-0.035,102.0,104.0,103.0,13.3,1505.2,350.7,-0.8,1.9,2471.906,13.28,0.014,257.9
2023-09-15T03:07:03,42.805,6.029,-0.041,0.004,-0.029,103.0,102.0,102.0,13.4,1505.2,333.0,-0.8,1.8,2471.821,13.28,0.041,275.6
2023-09-15T03:10:03,42.805,6.029,-0.028,0.028,0.008,102.0,104.0,101.0,13.4,1505.2,354.9,-0.8,1.8,2471.691,13.28,0.039,315.0
2023-09-15T03:13:03,42.805,6.029,-0.011,0.025,-0.033,103.0,102.0,101.0,13.4,1505.2,352.4,-0.8,1.8,2471.609,13.28,0.027,336.3
2023-09-15T03:16:03,42.805,6.029,-0.031,0.005,-0.014,102.0,102.0,101.0,13.3,1505.2,336.1,-0.8,1.8,2471.582,13.28,0.031,279.2
2023-09-15T03:19:03,42.805,6.029,0.0,-0.001,-0.017,102.0,103.0,101.0,13.4,1505.2,352.0,-0.7,1.8,2471.53,13.29,0.001,180.0
2023-09-15T03:22:03,42.805,6.029,-0.031,0.016,-0.04,103.0,101.0,101.0,13.3,1505.2,355.6,-0.8,1.8,2471.487,13.29,0.034,297.3
2023-09-15T03:25:03,42.805,6.029,-0.022,0.014,-0.024,104.0,104.0,101.0,13.4,1505.2,353.1,-0.8,1.8,2471.465,13.29,0.026,302.5
2023-09-15T03:28:03,42.805,6.029,-0.013,0.008,-0.033,103.0,102.0,102.0,13.3,1505.2,351.8,-0.8,1.8,2471.425,13.29,0.015,301.6
2023-09-15T03:31:03,42.805,6.029,-0.018,0.005,-0.063,103.0,103.0,100.0,13.4,1505.2,350.9,-0.8,1.8,2471.423,13.29,0.018,285.5
2023-09-15T03:34:03,42.805,6.029,-0.036,0.027,-0.043,103.0,102.0,101.0,13.4,1505.2,349.0,-0.8,1.8,2471.437,13.29,0.045,306.9
2023-09-15T03:37:03,42.805,6.029,-0.025,-0.007,-0.038,103.0,103.0,101.0,13.4,1505.2,346.8,-0.8,1.8,2471.388,13.29,0.025,254.4
2023-09-15T03:40:03,42.805,6.029,-0.05,0.035,-0.008,103.0,102.0,102.0,13.3,1505.2,352.3,-0.8,1.8,2471.422,13.29,0.061,305.0
2023-09-15T03:43:03,42.805,6.029,-0.015,-0.004,-0.037,103.0,103.0,101.0,13.3,1505.2,328.5,-0.8,1.8,2471.384,13.29,0.015,255.1
2023-09-15T03:46:03,42.805,6.029,-0.028,0.002,-0.002,103.0,102.0,102.0,13.4,1505.2,334.8,-0.7,1.8,2471.389,13.29,0.028,274.1
2023-09-15T03:49:03,42.805,6.029,-0.014,-0.006,-0.04,103.0,103.0,102.0,13.3,1505.2,332.1,-0.8,1.8,2471.409,13.29,0.015,246.8
2023-09-15T03:52:03,42.805,6.029,-0.022,0.031,0.002,102.0,103.0,103.0,13.4,1505.2,337.4,-0.7,1.8,2471.403,13.29,0.038,324.6
2023-09-15T03:55:03,42.805,6.029,-0.012,0.011,-0.005,103.0,102.0,102.0,13.4,1505.2,345.4,-0.8,1.8,2471.375,13.29,0.016,312.5
2023-09-15T03:58:03,42.805,6.029,-0.017,-0.001,0.001,103.0,103.0,102.0,13.4,1505.2,350.9,-0.8,1.8,2471.432,13.29,0.017,266.6
2023-09-15T04:04:02,42.805,6.029,-0.015,-0.004,-0.049,104.0,103.0,103.0,13.4,1505.2,337.3,-0.8,1.8,2471.459,13.28,0.015,255.1
2023-09-15T04:07:03,42.805,6.029,-0.035,-0.001,-0.001,103.0,102.0,104.0,13.4,1505.2,353.4,-0.7,1.8,2471.467,13.29,0.035,268.4
2023-09-15T04:10:03,42.805,6.029,-0.017,0.005,-0.007,103.0,103.0,102.0,13.4,1505.2,338.4,-0.8,1.8,2471.421,13.29,0.017,286.4
2023-09-15T04:13:03,42.805,6.029,-0.032,0.025,0.004,103.0,101.0,102.0,13.4,1505.2,333.0,-0.7,1.8,2471.46,13.29,0.04,308.0
2023-09-15T04:16:03,42.805,6.029,-0.028,0.001,-0.005,104.0,103.0,102.0,13.4,1505.2,345.7,-0.8,1.8,2471.424,13.29,0.028,272.0
2023-09-15T04:19:03,42.805,6.029,-0.022,0.011,-0.023,104.0,103.0,102.0,13.4,1505.2,344.8,-0.8,1.8,2471.409,13.29,0.024,296.6
2023-09-15T04:22:03,42.805,6.029,-0.024,0.008,-0.029,104.0,102.0,102.0,13.4,1505.2,341.5,-0.8,1.8,2471.423,13.29,0.025,288.4
2023-09-15T04:25:03,42.805,6.029,-0.035,0.017,-0.047,103.0,103.0,102.0,13.4,1505.2,353.9,-0.8,1.8,2471.44,13.29,0.038,295.9
2023-09-15T04:28:03,42.805,6.029,-0.019,0.017,0.0,103.0,102.0,103.0,13.4,1505.2,328.5,-0.8,1.8,2471.439,13.29,0.025,311.8
2023-09-15T04:31:03,42.805,6.029,-0.03,0.026,-0.04,103.0,103.0,102.0,13.4,1505.2,344.0,-0.8,1.8,2471.447,13.29,0.039,310.9
2023-09-15T04:34:03,42.805,6.029,-0.038,0.004,-0.025,103.0,103.0,102.0,13.3,1505.2,333.9,-0.8,1.8,2471.42,13.29,0.038,276.0
2023-09-15T04:37:03,42.805,6.029,-0.033,0.017,-0.03,103.0,103.0,102.0,13.4,1505.2,335.3,-0.8,1.8,2471.422,13.29,0.037,297.3
2023-09-15T04:40:03,42.805,6.029,-0.03,0.004,-0.028,104.0,103.0,102.0,13.4,1505.2,337.3,-0.8,1.8,2471.45,13.29,0.03,277.6
2023-09-15T04:43:03,42.805,6.029,-0.014,0.009,-0.002,103.0,102.0,103.0,13.4,1505.2,336.8,-0.8,1.8,2471.426,13.29,0.016,302.7
2023-09-15T04:46:03,42.805,6.029,-0.02,0.012,-0.024,103.0,102.0,103.0,13.3,1505.2,354.2,-0.8,1.8,2471.465,13.29,0.023,301.0
2023-09-15T04:49:03,42.805,6.029,-0.017,0.014,-0.021,103.0,104.0,102.0,13.4,1505.2,349.7,-0.8,1.8,2471.442,13.29,0.022,309.5
2023-09-15T04:52:03,42.805,6.029,-0.021,0.014,-0.029,105.0,103.0,102.0,13.4,1505.2,353.2,-0.8,1.8,2471.44,13.29,0.025,303.7
2023-09-15T04:55:03,42.805,6.029,-0.029,-0.011,-0.011,104.0,103.0,102.0,13.4,1505.2,331.1,-0.8,1.8,2471.434,13.29,0.031,249.2
2023-09-15T04:58:03,42.805,6.029,-0.009,0.004,-0.034,104.0,104.0,103.0,13.3,1505.2,328.5,-0.8,1.8,2471.47,13.29,0.009,294.0
2023-09-15T05:01:03,42.805,6.029,-0.001,0.016,-0.028,104.0,102.0,102.0,13.4,1505.2,345.1,-0.8,1.8,2471.45,13.29,0.016,356.4
2023-09-15T05:04:03,42.805,6.029,-0.008,-0.001,-0.01,103.0,103.0,102.0,13.4,1505.2,356.9,-0.7,1.8,2471.46,13.29,0.008,262.9
2023-09-15T05:07:03,42.805,6.029,-0.04,0.01,-0.032,103.0,103.0,102.0,13.4,1505.2,326.0,-0.8,1.8,2471.494,13.29,0.041,284.0
2023-09-15T05:10:03,42.805,6.029,-0.034,0.034,-0.072,105.0,102.0,101.0,13.3,1505.2,347.2,-0.8,1.8,2471.436,13.29,0.048,315.0
2023-09-15T05:13:03,42.805,6.029,-0.001,0.013,-0.029,104.0,104.0,102.0,13.3,1505.2,349.1,-0.8,1.8,2471.442,13.29,0.013,355.6
2023-09-15T05:16:03,42.805,6.029,-0.03,0.042,-0.016,103.0,103.0,103.0,13.4,1505.2,342.3,-0.8,1.8,2471.451,13.29,0.051,324.5
2023-09-15T05:19:03,42.805,6.029,-0.018,0.011,0.0,103.0,103.0,103.0,13.4,1505.2,353.6,-0.7,1.8,2471.419,13.29,0.021,301.4
2023-09-15T05:22:03,42.805,6.029,-0.023,0.037,-0.032,103.0,104.0,102.0,13.4,1505.2,351.8,-0.8,1.8,2471.486,13.29,0.043,328.1
2023-09-15T05:25:03,42.805,6.029,-0.038,0.031,-0.015,103.0,103.0,101.0,13.3,1505.2,348.4,-0.8,1.8,2471.459,13.29,0.049,309.2
2023-09-15T05:28:03,42.805,6.029,-0.026,0.019,-0.043,104.0,102.0,102.0,13.4,1505.2,349.1,-0.8,1.8,2471.456,13.29,0.032,306.2
2023-09-15T05:31:03,42.805,6.029,-0.014,0.003,-0.034,103.0,103.0,102.0,13.4,1505.2,352.4,-0.8,1.8,2471.506,13.29,0.014,282.1
2023-09-15T05:34:03,42.805,6.029,0.0,0.003,0.015,104.0,103.0,101.0,13.4,1505.2,345.0,-0.7,1.8,2471.486,13.29,0.003,0.0
2023-09-15T05:37:03,42.805,6.029,-0.011,0.002,-0.015,102.0,105.0,102.0,13.4,1505.2,334.9,-0.8,1.8,2471.517,13.29,0.011,280.3
2023-09-15T05:40:03,42.805,6.029,-0.038,0.022,-0.018,104.0,103.0,102.0,13.4,1505.2,335.6,-0.8,1.8,2471.426,13.29,0.043,300.1
2023-09-15T05:43:03,42.805,6.029,-0.015,-0.003,0.002,103.0,104.0,103.0,13.3,1505.2,337.5,-0.8,1.8,2471.479,13.29,0.015,258.7
2023-09-15T05:46:03,42.805,6.029,-0.03,0.002,-0.013,104.0,103.0,103.0,13.4,1505.2,329.0,-0.8,1.8,2471.454,13.29,0.03,273.8
2023-09-15T05:49:03,42.805,6.029,-0.011,-0.001,-0.027,103.0,104.0,103.0,13.4,1505.2,343.7,-0.8,1.8,2471.518,13.29,0.011,264.8
2023-09-15T05:52:03,42.805,6.029,-0.034,0.014,-0.046,103.0,103.0,103.0,13.4,1505.2,334.2,-0.8,1.8,2471.515,13.29,0.036,292.4
2023-09-15T05:55:03,42.805,6.029,-0.009,0.018,-0.033,105.0,103.0,102.0,13.4,1505.2,348.2,-0.7,1.8,2471.477,13.29,0.02,333.4
2023-09-15T05:58:03,42.805,6.029,-0.041,0.001,-0.031,104.0,104.0,102.0,13.4,1505.2,336.8,-0.8,1.8,2471.527,13.29,0.041,271.4
2023-09-15T06:04:03,42.805,6.029,-0.014,0.012,-0.033,103.0,103.0,102.0,13.4,1505.2,339.1,-0.8,1.8,2471.568,13.29,0.018,310.6
2023-09-15T06:07:03,42.805,6.029,-0.013,0.008,-0.038,103.0,103.0,102.0,13.4,1505.2,350.2,-0.8,1.8,2471.551,13.29,0.015,301.6
2023-09-15T06:10:03,42.805,6.029,-0.031,0.008,-0.053,105.0,103.0,102.0,13.4,1505.2,331.9,-0.7,1.8,2471.513,13.29,0.032,284.5
2023-09-15T06:13:03,42.805,6.029,-0.039,0.019,-0.001,104.0,103.0,102.0,13.4,1505.2,331.2,-0.7,1.8,2471.551,13.29,0.043,296.0
2023-09-15T06:16:03,42.805,6.029,-0.021,0.025,-0.028,103.0,103.0,102.0,13.4,1505.2,348.5,-0.8,1.8,2471.503,13.29,0.032,320.0
2023-09-15T06:19:03,42.805,6.029,-0.03,0.017,0.01,103.0,104.0,102.0,13.4,1505.2,333.9,-0.8,1.8,2471.553,13.29,0.034,299.5
2023-09-15T06:22:03,42.805,6.029,-0.023,0.026,-0.028,104.0,102.0,102.0,13.3,1505.2,339.4,-0.7,1.8,2471.566,13.29,0.034,318.5
2023-09-15T06:25:03,42.805,6.029,-0.006,-0.002,-0.003,104.0,103.0,102.0,13.3,1505.2,334.2,-0.7,1.8,2471.536,13.29,0.006,251.6
2023-09-15T06:28:03,42.805,6.029,-0.004,0.018,-0.024,103.0,103.0,101.0,13.4,1505.2,340.1,-0.8,1.8,2471.532,13.29,0.018,347.5
2023-09-15T06:31:03,42.805,6.029,-0.032,-0.003,0.015,104.0,103.0,102.0,13.4,1505.2,332.9,-0.8,1.8,2471.543,13.29,0.032,264.6
2023-09-15T06:34:03,42.805,6.029,-0.035,0.009,-0.041,102.0,103.0,102.0,13.3,1505.2,353.0,-0.7,1.8,2471.563,13.29,0.036,284.4
2023-09-15T06:37:03,42.805,6.029,-0.042,-0.004,-0.045,104.0,102.0,102.0,13.4,1505.2,325.7,-0.7,1.8,2471.547,13.29,0.042,264.6
2023-09-15T06:40:03,42.805,6.029,-0.01,-0.009,-0.011,103.0,103.0,101.0,13.4,1505.2,323.6,-0.8,1.8,2471.502,13.29,0.013,228.0
2023-09-15T06:43:03,42.805,6.029,-0.013,0.005,-0.041,103.0,103.0,102.0,13.4,1505.2,345.1,-0.8,1.8,2471.556,13.29,0.013,291.0
2023-09-15T06:46:03,42.805,6.029,-0.032,0.015,-0.066,105.0,102.0,102.0,13.4,1505.2,339.3,-0.7,1.8,2471.483,13.29,0.035,295.1
2023-09-15T06:49:03,42.805,6.029,-0.039,0.027,-0.034,103.0,102.0,102.0,13.3,1505.2,349.4,-0.8,1.8,2471.547,13.29,0.047,304.7
2023-09-15T06:52:03,42.805,6.029,-0.019,-0.004,-0.008,103.0,104.0,102.0,13.4,1505.2,333.4,-0.7,1.8,2471.543,13.29,0.019,258.1
2023-09-15T06:55:03,42.805,6.029,-0.036,-0.009,-0.035,104.0,101.0,102.0,13.4,1505.2,334.4,-0.7,1.8,2471.525,13.29,0.037,256.0
2023-09-15T06:58:03,42.805,6.029,-0.009,-0.023,-0.058,104.0,103.0,102.0,13.3,1505.2,327.5,-0.8,1.8,2471.489,13.29,0.024,201.4
2023-09-15T07:04:03,42.805,6.029,-0.034,0.01,-0.024,104.0,103.0,102.0,13.3,1505.2,352.0,-0.8,1.8,2471.617,13.29,0.035,286.4
2023-09-15T07:07:03,42.805,6.029,-0.02,0.004,-0.006,104.0,104.0,102.0,13.4,1505.2,327.3,-0.8,1.8,2471.577,13.29,0.02,281.3
2023-09-15T07:10:03,42.805,6.029,0.014,-0.001,-0.018,104.0,103.0,102.0,13.3,1505.2,325.3,-0.8,1.8,2471.564,13.29,0.014,94.1
2023-09-15T07:13:03,42.805,6.029,-0.025,-0.008,-0.041,104.0,102.0,102.0,13.4,1505.2,335.7,-0.8,1.8,2471.545,13.29,0.026,252.3
2023-09-15T07:16:03,42.805,6.029,-0.019,0.018,-0.016,104.0,104.0,102.0,13.4,1505.2,346.5,-0.8,1.8,2471.541,13.29,0.026,313.5
2023-09-15T07:19:03,42.805,6.029,-0.027,0.011,-0.043,104.0,103.0,102.0,13.4,1505.2,345.7,-0.8,1.8,2471.518,13.29,0.029,292.2
2023-09-15T07:22:03,42.805,6.029,-0.022,0.025,-0.016,103.0,103.0,103.0,13.3,1505.2,332.4,-0.8,1.8,2471.518,13.29,0.033,318.7
2023-09-15T07:25:03,42.805,6.029,-0.025,0.006,-0.029,104.0,102.0,102.0,13.4,1505.2,327.8,-0.8,1.8,2471.545,13.29,0.025,283.5
2023-09-15T07:28:03,42.805,6.029,-0.006,0.007,-0.048,105.0,103.0,102.0,13.3,1505.2,352.0,-0.8,1.8,2471.494,13.29,0.009,319.4
2023-09-15T07:31:03,42.805,6.029,-0.031,0.018,-0.022,104.0,103.0,102.0,13.4,1505.2,344.8,-0.8,1.8,2471.549,13.29,0.035,300.1
2023-09-15T07:34:03,42.805,6.029,-0.022,0.019,-0.013,103.0,103.0,101.0,13.3,1505.2,351.5,-0.8,1.8,2471.552,13.29,0.029,310.8
2023-09-15T07:37:03,42.805,6.029,-0.018,-0.003,-0.043,103.0,103.0,101.0,13.4,1505.2,336.5,-0.8,1.8,2471.547,13.29,0.018,260.5
2023-09-15T07:40:03,42.805,6.029,-0.045,0.013,-0.039,103.0,103.0,101.0,13.4,1505.2,343.6,-0.8,1.8,2471.521,13.29,0.046,286.1
2023-09-15T07:43:03,42.805,6.029,-0.003,0.01,-0.012,103.0,103.0,102.0,13.4,1505.2,334.3,-0.8,1.8,2471.5,13.29,0.01,343.3
2023-09-15T07:46:03,42.805,6.029,-0.004,0.017,-0.027,103.0,103.0,102.0,13.4,1505.2,335.5,-0.8,1.8,2471.535,13.29,0.017,346.8
2023-09-15T07:49:03,42.805,6.029,-0.018,0.013,-0.023,103.0,102.0,102.0,13.3,1505.2,345.0,-0.8,1.8,2471.529,13.29,0.022,305.8
2023-09-15T07:52:03,42.805,6.029,-0.012,0.019,-0.062,103.0,102.0,102.0,13.3,1505.2,345.9,-0.8,1.9,2471.523,13.29,0.022,327.7
2023-09-15T07:55:03,42.805,6.029,-0.042,0.006,-0.051,104.0,102.0,102.0,13.4,1505.2,333.4,-0.8,1.8,2471.551,13.29,0.042,278.1
2023-09-15T07:58:03,42.805,6.029,0.003,0.017,0.002,103.0,103.0,102.0,13.4,1505.2,346.8,-0.8,1.8,2471.512,13.29,0.017,10.0
2023-09-15T08:04:03,42.805,6.029,-0.027,0.021,-0.02,103.0,103.0,103.0,13.4,1505.2,339.5,-0.8,1.8,2471.57,13.29,0.034,307.9
2023-09-15T08:07:03,42.805,6.029,-0.024,0.016,-0.009,103.0,103.0,102.0,13.4,1505.2,340.1,-0.7,1.8,2471.582,13.29,0.028,303.7
2023-09-15T08:10:03,42.805,6.029,-0.01,-0.009,-0.026,103.0,103.0,102.0,13.3,1505.2,327.8,-0.8,1.8,2471.554,13.29,0.013,228.0
2023-09-15T08:13:03,42.805,6.029,0.013,-0.007,-0.021,103.0,102.0,101.0,13.4,1505.2,324.7,-0.8,1.8,2471.558,13.29,0.014,118.3
2023-09-15T08:16:03,42.805,6.029,-0.025,0.019,-0.017,103.0,103.0,102.0,13.4,1505.2,327.1,-0.8,1.8,2471.552,13.29,0.031,307.2
2023-09-15T08:19:03,42.805,6.029,-0.036,0.044,-0.018,104.0,102.0,102.0,13.4,1505.2,338.4,-0.8,1.8,2471.544,13.29,0.056,320.7
2023-09-15T08:22:03,42.805,6.029,-0.036,-0.003,-0.039,103.0,104.0,101.0,13.4,1505.2,329.1,-0.8,1.8,2471.538,13.29,0.036,265.2
2023-09-15T08:25:03,42.805,6.029,-0.039,0.02,-0.017,103.0,102.0,102.0,13.4,1505.2,330.6,-0.7,1.8,2471.505,13.29,0.043,297.1
2023-09-15T08:28:03,42.805,6.029,-0.001,0.007,-0.009,103.0,102.0,102.0,13.4,1505.2,335.1,-0.8,1.8,2471.51,13.29,0.007,351.9
2023-09-15T08:31:03,42.805,6.029,-0.016,0.015,-0.039,103.0,103.0,102.0,13.4,1505.2,350.9,-0.8,1.8,2471.516,13.29,0.021,313.1
2023-09-15T08:34:03,42.805,6.029,-0.015,0.011,-0.037,103.0,102.0,102.0,13.4,1505.2,337.0,-0.8,1.8,2471.495,13.29,0.018,306.3
2023-09-15T08:37:03,42.805,6.029,-0.031,0.008,-0.035,102.0,102.0,102.0,13.4,1505.2,341.0,-0.8,1.9,2471.517,13.29,0.032,284.5
2023-09-15T08:40:03,42.805,6.029,-0.019,0.0,-0.025,103.0,102.0,101.0,13.4,1505.2,330.2,-0.8,1.8,2471.549,13.29,0.019,270.0
2023-09-15T08:43:03,42.805,6.029,0.004,0.008,-0.015,103.0,102.0,102.0,13.4,1505.2,332.5,-0.8,1.8,2471.514,13.29,0.008,26.6
2023-09-15T08:46:03,42.805,6.029,-0.028,0.004,-0.032,103.0,101.0,103.0,13.4,1505.2,331.4,-0.8,1.8,2471.52,13.29,0.028,278.1
2023-09-15T08:49:03,42.805,6.029,-0.024,0.005,-0.026,103.0,102.0,102.0,13.4,1505.2,329.1,-0.8,1.8,2471.498,13.29,0.024,281.8
2023-09-15T08:52:03,42.805,6.029,-0.008,0.026,-0.001,104.0,102.0,102.0,13.4,1505.2,347.0,-0.8,1.8,2471.473,13.29,0.027,342.9
2023-09-15T08:55:03,42.805,6.029,-0.019,0.019,-0.003,103.0,103.0,101.0,13.4,1505.2,352.7,-0.7,1.8,2471.456,13.29,0.026,315.0
2023-09-15T08:58:03,42.805,6.029,-0.039,-0.01,-0.02,103.0,102.0,102.0,13.4,1505.2,332.0,-0.8,1.8,2471.484,13.29,0.04,255.6
2023-09-15T09:04:03,42.805,6.029,0.005,-0.018,-0.028,102.0,103.0,102.0,13.3,1505.2,343.1,-0.7,1.8,2471.551,13.28,0.018,164.5
2023-09-15T09:07:03,42.805,6.029,-0.013,0.01,-0.009,103.0,102.0,102.0,13.4,1505.2,334.3,-0.7,1.8,2471.561,13.29,0.016,307.6
2023-09-15T09:10:03,42.805,6.029,-0.024,0.011,-0.03,102.0,102.0,102.0,13.4,1505.2,353.0,-0.8,1.8,2471.546,13.29,0.026,294.6
2023-09-15T09:13:03,42.805,6.029,-0.018,0.004,-0.044,102.0,104.0,102.0,13.4,1505.2,343.4,-0.8,1.8,2471.527,13.29,0.018,282.5
2023-09-15T09:16:03,42.805,6.029,-0.015,-0.004,-0.023,102.0,102.0,102.0,13.4,1505.2,350.9,-0.7,1.8,2471.482,13.29,0.015,255.1
2023-09-15T09:19:03,42.805,6.029,-0.02,-0.005,-0.033,103.0,101.0,102.0,13.3,1505.2,327.8,-0.8,1.8,2471.467,13.29,0.02,256.0
2023-09-15T09:22:03,42.805,6.029,-0.017,0.005,-0.017,102.0,103.0,102.0,13.4,1505.2,354.4,-0.8,1.8,2471.52,13.29,0.017,286.4
2023-09-15T09:25:03,42.805,6.029,-0.035,0.007,-0.016,102.0,102.0,102.0,13.3,1505.2,328.5,-0.8,1.8,2471.499,13.29,0.035,281.3
2023-09-15T09:28:03,42.805,6.029,-0.015,-0.01,-0.052,101.0,102.0,102.0,13.3,1505.2,340.1,-0.7,1.8,2471.481,13.29,0.018,236.3
2023-09-15T09:31:03,42.805,6.029,0.001,0.011,-0.019,102.0,103.0,101.0,13.3,1505.2,326.0,-0.8,1.8,2471.487,13.29,0.011,5.2
2023-09-15T09:34:03,42.805,6.029,-0.015,-0.018,-0.049,103.0,102.0,103.0,13.3,1505.2,332.1,-0.8,1.8,2471.471,13.29,0.023,219.8
2023-09-15T09:37:03,42.805,6.029,-0.022,0.001,-0.012,103.0,102.0,102.0,13.4,1505.2,327.8,-0.8,1.8,2471.482,13.29,0.022,272.6
2023-09-15T09:40:03,42.805,6.029,-0.016,0.005,-0.043,103.0,103.0,101.0,13.4,1505.2,339.6,-0.7,1.8,2471.447,13.29,0.016,287.4
2023-09-15T09:43:03,42.805,6.029,-0.024,0.002,-0.051,103.0,103.0,102.0,13.4,1505.2,353.1,-0.8,1.8,2471.467,13.29,0.024,274.8
2023-09-15T09:46:03,42.805,6.029,-0.033,0.01,-0.006,105.0,103.0,102.0,13.4,1505.2,335.9,-0.8,1.8,2471.488,13.29,0.034,286.9
2023-09-15T09:49:03,42.805,6.029,-0.016,0.007,-0.021,104.0,103.0,102.0,13.4,1505.2,335.4,-0.8,1.8,2471.454,13.29,0.017,293.6
2023-09-15T09:52:03,42.805,6.029,-0.029,0.006,-0.016,103.0,103.0,102.0,13.3,1505.2,349.4,-0.8,1.8,2471.442,13.29,0.029,281.7
2023-09-15T09:55:03,42.805,6.029,-0.02,0.005,-0.022,103.0,103.0,101.0,13.4,1505.2,333.4,-0.8,1.8,2471.489,13.29,0.02,284.0
2023-09-15T09:58:03,42.805,6.029,-0.022,0.003,-0.028,103.0,103.0,102.0,13.3,1505.2,338.4,-0.8,1.8,2471.457,13.29,0.022,277.8
2023-09-15T10:04:03,42.805,6.029,-0.024,0.025,-0.021,103.0,103.0,102.0,13.3,1505.2,340.8,-0.8,1.8,2471.501,13.28,0.034,316.2
2023-09-15T10:07:03,42.805,6.029,-0.033,-0.007,-0.031,104.0,103.0,101.0,13.3,1505.2,332.9,-0.7,1.8,2471.514,13.29,0.033,258.0
2023-09-15T10:10:03,42.805,6.029,0.009,0.018,0.012,105.0,101.0,102.0,13.4,1505.2,339.7,-0.8,1.8,2471.457,13.29,0.02,26.6
2023-09-15T10:13:03,42.805,6.029,0.004,-0.003,0.019,103.0,103.0,102.0,13.3,1505.2,332.1,-0.7,1.8,2471.504,13.29,0.005,126.9
2023-09-15T10:16:03,42.805,6.029,-0.046,0.014,-0.03,103.0,102.0,101.0,13.4,1505.2,332.5,-0.7,1.8,2471.461,13.29,0.048,286.9
2023-09-15T10:19:03,42.805,6.029,-0.035,0.024,-0.035,103.0,102.0,102.0,13.3,1505.2,330.5,-0.7,1.8,2471.47,13.29,0.042,304.4
2023-09-15T10:22:03,42.805,6.029,-0.037,0.008,-0.038,103.0,103.0,101.0,13.3,1505.2,333.8,-0.8,1.8,2471.439,13.29,0.037,282.2
2023-09-15T10:25:03,42.805,6.029,-0.005,0.015,-0.032,102.0,102.0,102.0,13.4,1505.2,346.8,-0.8,1.8,2471.475,13.29,0.015,341.6
2023-09-15T10:28:03,42.805,6.029,-0.001,-0.007,-0.045,104.0,102.0,102.0,13.3,1505.2,326.0,-0.7,1.8,2471.452,13.29,0.007,188.1
2023-09-15T10:31:03,42.805,6.029,-0.041,-0.011,-0.052,103.0,103.0,102.0,13.4,1505.2,335.3,-0.8,1.8,2471.455,13.29,0.042,255.0
2023-09-15T10:34:03,42.805,6.029,0.001,0.002,-0.02,103.0,103.0,101.0,13.3,1505.2,331.6,-0.8,1.8,2471.443,13.29,0.002,26.6
2023-09-15T10:37:03,42.805,6.029,-0.012,0.012,-0.028,104.0,102.0,102.0,13.4,1505.2,344.1,-0.8,1.8,2471.404,13.29,0.016,315.0
2023-09-15T10:40:03,42.805,6.029,-0.025,0.016,-0.02,104.0,102.0,102.0,13.4,1505.2,329.4,-0.8,1.8,2471.434,13.29,0.029,302.6
2023-09-15T10:43:03,42.805,6.029,-0.025,0.024,-0.003,105.0,102.0,101.0,13.4,1505.2,330.7,-0.8,1.8,2471.407,13.29,0.034,313.8
2023-09-15T10:46:03,42.805,6.029,-0.003,0.005,-0.03,103.0,104.0,102.0,13.4,1505.2,329.4,-0.7,1.8,2471.438,13.29,0.005,329.0
2023-09-15T10:49:03,42.805,6.029,-0.05,0.011,-0.037,103.0,103.0,101.0,13.3,1505.2,327.0,-0.8,1.8,2471.424,13.29,0.051,282.4